Showing default

ECHOSTAR 17, 38551

Orbit data source: Space-Track

ECHOSTAR 17, 38551 is a payload satellite owned by Echostar/HNS (US) in GEO that was launched on Thu, 05 Jul 2012 UTC via an ARIANE 5ECA launch vehicle from the French Guiana (FRGUI). Payload-class satellites include a variety of spacecraft equipped with specific instruments for various scientific and technological missions. These include communications satellites like Starlink; space stations such as the ISS; scientific satellites like the Hubble; Earth observation satellites from companies like Planet Labs, Umbra, and HawkEye 360; GPS; miniature CubeSats for education and research; and military/defense satellites.

Loading next visibility...
Identifier
38551, 2012-035A
Orbit
GEO
Country
Flag of USUS
Related business
Manufacturer
SS/Loral
Mission
Operational Commercial Communications
Bus & Motor
SSL-1300E, R-4D
Mass
6,100 kg wet, ~4,500 kg dry
Launch date (UTC)
2012-07-05 (14 years ago)
Launch vehicle
ARIANE 5ECA
Launch site
French Guiana (FRGUI)
Object type
Payload
Rocket body
Debris
Shape & HBR
Box + 2 Pan, 13.1 m
Radar Cross Section
48.712 m², Large (>1 m²)

Expand to show TLE details & history
Last TLE update: 5 hours ago

TLE from 5 hours ago
0 ECHOSTAR 17
1 38551U 12035A   26062.15933806 -.00000091  00000-0  00000+0 0  9994
2 38551   0.0181 126.1713 0001964 217.0697 127.9317  1.00272395 50001
Epoch: 2026-03-03T03:49Z
TLE epoch observation values (Epoch: 2026-03-03T03:49:26.808Z)
Latitude
-0.01615°
Longitude
-107.07784°
Altitude
35,791.046 km
Speed
3.074 km/s
True Right ascension
07h 24m 54s
True Declination
0° 00' 58"
Sunlit
Object was in daylight at epoch
Visualization orbit readout
Latitude
Unknown
Longitude
Unknown
Altitude
Unknown
Speed
Unknown
Apparent Right ascension
Unknown
Apparent Declination
Unknown
Sunlit
N/A
Visualization observer readout
Local Sidereal Time
12:04:17
Azimuth
Unknown
Elevation
Unknown
Doppler factor
Unknown
Orbital elements
Apogee altitude
35,795.776 km
Perigee altitude
35,779.213 km
Semi-major axis
42,165.631 km
Eccentricity
0.0002
Inclination
0.0181°
RAAN
126.1713°
Arg. of periapsis
217.0697°
True anomaly
127.94945°
Mean anomaly
127.9317°
Eccentric anomaly
127.94057°
Mean motion
0.25067 °/min
Orbital period
1,436.14 mins
BSTAR
0
Loading maneuver chart data...
Computing Atmospheric mass density...
Loading historical data...
Loading historical data...
Loading historical data...
Loading historical data...
Loading historical data...
Loading historical data...
Loading historical data...

Documentation

Showing up to 5 results
|